| time (UTC) | temp F | wind direction | speed knots | gust knots | rain 1hr in | rain 24hr in | rain mn in | humidity % | barometer mb |
| 20260904055952 | 66 | 342 | 0.9 | 3.5 | 0.00 | 0.00 | 0.00 | 47 | 1021.1 |
| 20260904054152 | 65 | 7 | 0.0 | 4.3 | 0.00 | 0.00 | 0.00 | 48 | 1021.6 |
| 20260904051452 | 64 | 320 | 0.9 | 2.6 | 0.00 | 0.00 | 0.00 | 49 | 1021.6 |
| 20260904050552 | 63 | 282 | 0.9 | 3.5 | 0.00 | 0.00 | 0.00 | 50 | 1021.6 |
| 20260904045652 | 63 | 323 | 1.7 | 3.5 | 0.00 | 0.00 | 0.00 | 51 | 1021.3 |
| 20260904044752 | 62 | 256 | 1.7 | 3.5 | 0.00 | 0.00 | 0.00 | 52 | 1021.3 |
| 20260904042952 | 61 | 308 | 0.9 | 2.6 | 0.00 | 0.00 | 0.00 | 53 | 1021.4 |
| 20260904041152 | 61 | 320 | 0.9 | 2.6 | 0.00 | 0.00 | 0.00 | 52 | 1021.5 |
| 20260904040252 | 62 | 311 | 0.0 | 3.5 | 0.00 | 0.00 | 0.00 | 51 | 1021.5 |
| 20260904035352 | 62 | 131 | 0.9 | 2.6 | 0.00 | 0.00 | 0.00 | 52 | 1021.5 |
| 20260904034452 | 62 | 234 | 0.9 | 3.5 | 0.00 | 0.00 | 0.00 | 52 | 1021.6 |
| 20260904033552 | 62 | 258 | 0.9 | 3.5 | 0.00 | 0.00 | 0.00 | 53 | 1021.6 |
| 20260904032652 | 62 | 285 | 0.9 | 2.6 | 0.00 | 0.00 | 0.00 | 52 | 1021.8 |
| 20260904031752 | 62 | 241 | 0.9 | 3.5 | 0.00 | 0.00 | 0.00 | 52 | 1021.8 |
| 20260904030852 | 62 | 283 | 0.9 | 5.2 | 0.00 | 0.00 | 0.00 | 52 | 1021.7 |
| 20260904025952 | 62 | 317 | 0.0 | 3.5 | 0.00 | 0.00 | 0.00 | 51 | 1021.6 |
| 20260904025052 | 62 | 246 | 0.9 | 3.5 | 0.00 | 0.00 | 0.00 | 51 | 1021.9 |
| 20260904024152 | 62 | 331 | 0.9 | 2.6 | 0.00 | 0.00 | 0.00 | 50 | 1021.9 |
| 20260904023252 | 62 | 303 | 0.9 | 2.6 | 0.00 | 0.00 | 0.00 | 50 | 1021.9 |
| 20260904022352 | 62 | 316 | 0.0 | 3.5 | 0.00 | 0.00 | 0.00 | 50 | 1021.8 |
| 20260904021452 | 62 | 311 | 0.9 | 2.6 | 0.00 | 0.00 | 0.00 | 49 | 1021.8 |
| 20260904020552 | 62 | 315 | 0.9 | 2.6 | 0.00 | 0.00 | 0.00 | 49 | 1021.7 |
| 20260904015652 | 62 | 307 | 0.9 | 3.5 | 0.00 | 0.00 | 0.00 | 48 | 1021.6 |
| 20260904014752 | 63 | 320 | 1.7 | 3.5 | 0.00 | 0.00 | 0.00 | 47 | 1021.6 |
| 20260904011152 | 63 | 322 | 0.0 | 4.3 | 0.00 | 0.00 | 0.00 | 47 | 1022.0 |
| 20260904010252 | 63 | 315 | 0.9 | 2.6 | 0.00 | 0.00 | 0.00 | 47 | 1022.0 |
| 20260904004452 | 64 | 303 | 0.0 | 4.3 | 0.00 | 0.00 | 0.00 | 47 | 1022.2 |
| 20260904003552 | 64 | 314 | 0.9 | 4.3 | 0.00 | 0.00 | 0.00 | 47 | 1021.9 |
| 20260904002652 | 64 | 267 | 0.9 | 7.0 | 0.00 | 0.00 | 0.00 | 47 | 1022.2 |
| 20260904001752 | 63 | 247 | 0.9 | 3.5 | 0.00 | 0.00 | 0.00 | 48 | 1022.2 |
| 20260904000852 | 63 | 264 | 0.9 | 3.5 | 0.00 | 0.00 | 0.00 | 49 | 1022.1 |
| 20260903235952 | 63 | 286 | 0.0 | 1.7 | 0.00 | 0.00 | 0.00 | 50 | 1022.1 |
| 20260903235052 | 63 | 270 | 0.0 | 1.7 | 0.00 | 0.00 | 0.00 | 50 | 1022.3 |
| 20260903234152 | 62 | 270 | 0.0 | 1.7 | 0.00 | 0.00 | 0.00 | 51 | 1022.5 |
| 20260903233252 | 62 | 312 | 0.0 | 1.7 | 0.00 | 0.00 | 0.00 | 51 | 1022.7 |
| 20260903232352 | 62 | 331 | 0.0 | 1.7 | 0.00 | 0.00 | 0.00 | 51 | 1022.6 |
| 20260903231452 | 62 | 320 | 0.0 | 2.6 | 0.00 | 0.00 | 0.00 | 51 | 1022.6 |
| 20260903230552 | 62 | 328 | 0.9 | 2.6 | 0.00 | 0.00 | 0.00 | 52 | 1022.6 |
| 20260903225652 | 62 | 314 | 0.9 | 3.5 | 0.00 | 0.00 | 0.00 | 52 | 1022.4 |
| 20260903224752 | 62 | 354 | 0.9 | 3.5 | 0.00 | 0.00 | 0.00 | 52 | 1022.5 |
| 20260903222952 | 62 | 354 | 0.9 | 3.5 | 0.00 | 0.00 | 0.00 | 51 | 1022.3 |